CZ-3A R/B (43540 NORAD) Tracking and Keplerian Element Data

This shows tracking and keplerian element data for the satellite.

Feedback or suggestion? Click here.




ElementValue
Catalog43540
NameCZ-3A R/B
Epoch Orbit34
Epoch Day202.41685457
Epoch Year2018
RAAN186.5572
Inclination55.0726
Eccentricity0.7273179
Argument of Perigee176.6123
Mean Anonmoly194.9787
Mean Motion2.30141778
Decay Rate3.386E-05
L11 43540U 18057B 18202.41685457 .00003386 00000-0 57272-3 0 9996
L22 43540 55.0726 186.5572 7273179 176.6123 194.9787 2.30141778 344

Live tracking and technical data element details for CZ-3A R/B (NORAD 43540). CZ-3A R/B can be tracked NOW for your location showing map with azimuth and elevation plus other details from your city location.

Track the satellite on the map from your city or location and see movement details for azimuth, elevation, latitude, longitude, range, height, and movement on the map or in text.







IsCatalogInMostPopularTable: catalog: 43540, numindb: 6
Update: records affected: 1



GetName: 43540 CZ-3A R/B

Hit Count: updated at: Mon, 23 Jul 2018 07:31:57 GMT